{"data":{"norad_id":57375,"intl_designator":"2023-099AZ","name":"STARLINK-6363","alt_names":[],"object_type":"PAYLOAD","status":"ACTIVE","operator":null,"country":"US","launch_date":"2023-07-16","launch_site_code":"AFETR","launch_vehicle":null,"mission":null,"orbit_class":"UNKNOWN","rcs_meters":null,"size_class":null,"mass_kg":null,"dimensions":null,"purposes":["comms"],"wikipedia_slug":null,"has_3d_model":false,"image_url":null,"decayed_at":null,"tle_current":{"epoch":"2026-05-25T02:30:48.487104Z","epoch_age_seconds":59199,"freshness":"FRESH","line1":"1 57375U 23099AZ  26145.10472786  .00000332  00000+0  21601-4 0  9994","line2":"2 57375  43.0009 170.3179 0001081 277.8278  82.2451 15.27576153157887","mean_motion":15.27576153,"eccentricity":0.0001081,"inclination_deg":43.0009,"raan_deg":170.3179,"arg_perigee_deg":277.8278,"mean_anomaly_deg":82.2451,"bstar":2.1601e-5,"rev_number":15788,"period_min":94.266986112083,"perigee_km":482.31891990356,"apogee_km":483.802310828,"semimajor_km":6861.1976153658,"source":"CELESTRAK","updated_at":"2026-05-25T13:38:18.295929Z"}}}